Flag for Canada Weather past 2 weeks in Dryden, Ontario, Canada

Now
61 °F

Sunny.


Feels Like: 61 °F
Forecast: 59 / 84 °F
Wind: 2 mph from North

Location: Dryden Airport

Current Time: Sep 2, 2015 at 7:56:09 AM

Latest Report: Sep 2, 2015 at 7:00 AM


Visibility: 9 mi

Pressure: 29.94 "Hg

Humidity: 83%

Dew point: 55 °F

Location of DrydenLocation

Historic Weather in Dryden — Graph

°F

Dryden temperature yesterday

Maximum temperature yesterday: 81 °F (at 3:00 PM)
Minimum temperature yesterday: 59 °F (at 6:00 AM)
Average temperature yesterday: 70 °F

Past Weeks' High & Low Weather Summary

 TemperatureHumidityPressure
High82 °F (Aug 30, 4:00 PM)100% (Aug 26, 6:00 AM)30.23 "Hg (Aug 26, 6:00 AM)
Low43 °F (Aug 26, 6:00 AM)26% (Sep 1, 3:00 PM)29.45 "Hg (Aug 22, 10:00 PM)
Average62 °F77%29.85 "Hg
* Reported Aug 18 7:00 AM — Sep 2 7:00 AM, Dryden, Weather by CustomWeather, © 2015

Note: Actual official high and low records may vary slightly from our data, if they occured in-between our weather recording intervals... More about our weather records

Advertising

Dryden weather history for previous 24 hours

 ConditionsComfort  
Time TempWeatherWind HumidityBarometerVisibility
7:00 AM
Wed, Sep 2
61 °FSunny.2 mph83%29.94 "Hg9 mi
6:00 AM63 °FClear.3 mph73%29.93 "Hg9 mi
5:00 AM63 °FClear.2 mph73%29.94 "Hg9 mi
4:00 AM61 °FClear.6 mph77%29.93 "Hg9 mi
3:00 AM63 °FClear.7 mph73%29.92 "Hg9 mi
2:00 AM64 °FClear.7 mph68%29.91 "Hg9 mi
1:00 AM64 °FClear.9 mph68%29.92 "Hg9 mi
12:00 AM66 °FClear.9 mph64%29.92 "Hg9 mi
11:00 PM
Tue, Sep 1
66 °FClear.8 mph64%29.92 "Hg9 mi
10:00 PM68 °FClear.7 mph53%29.91 "Hg9 mi
9:00 PM70 °FClear.6 mph50%29.91 "Hg9 mi
8:00 PM72 °FClear.6 mph47%29.90 "Hg9 mi
7:00 PM77 °FSunny.7 mph36%29.89 "Hg9 mi
6:00 PM79 °FSunny.10 mph32%29.88 "Hg9 mi
5:00 PM81 °FSunny.13 mph30%29.87 "Hg9 mi
4:00 PM81 °FSunny.14 mph26%29.87 "Hg9 mi
3:00 PM81 °FSunny.14 mph26%29.87 "Hg9 mi
2:00 PM79 °FSunny.16 mph30%29.87 "Hg9 mi
1:00 PM77 °FSunny.13 mph36%29.87 "Hg9 mi
12:00 PM75 °FSunny.13 mph41%29.88 "Hg9 mi
11:00 AM73 °FSunny.13 mph44%29.88 "Hg9 mi
10:00 AM70 °FSunny.7 mph57%29.88 "Hg9 mi
9:00 AM66 °FSunny.9 mph73%29.88 "Hg9 mi
8:00 AM61 °FSunny.8 mph88%29.88 "Hg9 mi
7:00 AM59 °FSunny.7 mph94%29.87 "Hg9 mi
Weather by CustomWeather, © 2015

See weather overviewHow to use our weather pages